Time,TemperatureF,DewpointF,PressureIn,WindDirection,WindDirectionDegrees,WindSpeedMPH,WindSpeedGustMPH,Humidity,HourlyPrecipIn,Conditions,Clouds,dailyrainin,SoftwareType,DateUTC
2013-02-07 00:00:00,40.3,36.0,29.71,SSE,166,0.0,0.0,83,0.00,,,0.00,weatherlink.com 1.10,2013-02-07 06:00:00,
2013-02-07 00:14:00,40.4,36.0,29.70,SSE,166,0.0,0.0,83,0.00,,,0.00,weatherlink.com 1.10,2013-02-07 06:14:00,
2013-02-07 00:29:00,40.2,35.0,29.71,SSE,166,0.0,0.0,83,0.00,,,0.00,weatherlink.com 1.10,2013-02-07 06:29:00,
2013-02-07 00:44:00,39.8,35.0,29.71,SSE,166,0.0,0.0,83,0.00,,,0.00,weatherlink.com 1.10,2013-02-07 06:44:00,
2013-02-07 01:00:00,39.3,35.0,29.71,NW,310,0.0,0.0,84,0.00,,,0.00,weatherlink.com 1.10,2013-02-07 07:00:00,
2013-02-07 01:15:00,39.1,35.0,29.71,NW,310,0.0,1.0,85,0.00,,,0.00,weatherlink.com 1.10,2013-02-07 07:15:00,
2013-02-07 01:29:00,39.4,35.0,29.70,NW,310,0.0,1.0,85,0.00,,,0.00,weatherlink.com 1.10,2013-02-07 07:29:00,
2013-02-07 01:45:00,39.4,35.0,29.71,NW,310,0.0,0.0,84,0.00,,,0.00,weatherlink.com 1.10,2013-02-07 07:45:00,
2013-02-07 01:59:00,39.2,35.0,29.71,NW,310,0.0,0.0,84,0.00,,,0.00,weatherlink.com 1.10,2013-02-07 07:59:00,
2013-02-07 02:15:00,38.3,34.0,29.73,NNW,333,4.0,4.0,85,0.00,,,0.00,weatherlink.com 1.10,2013-02-07 08:15:00,
2013-02-07 02:30:00,38.2,34.0,29.73,North,5,0.0,4.0,86,0.00,,,0.00,weatherlink.com 1.10,2013-02-07 08:30:00,
2013-02-07 02:45:00,38.1,34.0,29.72,North,5,0.0,0.0,85,0.00,,,0.00,weatherlink.com 1.10,2013-02-07 08:45:00,
2013-02-07 03:00:00,37.8,34.0,29.72,NNW,329,3.0,3.0,86,0.00,,,0.00,weatherlink.com 1.10,2013-02-07 09:00:00,
2013-02-07 03:16:00,37.9,34.0,29.72,North,5,0.0,3.0,86,0.00,,,0.00,weatherlink.com 1.10,2013-02-07 09:16:00,
2013-02-07 03:30:00,37.7,34.0,29.73,North,5,0.0,1.0,87,0.00,,,0.00,weatherlink.com 1.10,2013-02-07 09:30:00,
2013-02-07 03:45:00,37.7,34.0,29.73,North,355,0.0,6.0,87,0.00,,,0.00,weatherlink.com 1.10,2013-02-07 09:45:00,
2013-02-07 04:00:00,37.4,33.0,29.72,NNW,348,0.0,5.0,85,0.00,,,0.00,weatherlink.com 1.10,2013-02-07 10:00:00,
2013-02-07 04:15:00,37.0,33.0,29.72,North,360,0.0,5.0,84,0.00,,,0.00,weatherlink.com 1.10,2013-02-07 10:15:00,
2013-02-07 04:30:00,36.9,33.0,29.73,North,11,0.0,6.0,84,0.00,,,0.00,weatherlink.com 1.10,2013-02-07 10:30:00,
2013-02-07 04:45:00,37.0,32.0,29.74,NW,311,2.0,8.0,83,0.00,,,0.00,weatherlink.com 1.10,2013-02-07 10:45:00,
2013-02-07 05:00:00,37.1,32.0,29.75,NNE,17,2.0,8.0,82,0.00,,,0.00,weatherlink.com 1.10,2013-02-07 11:00:00,
2013-02-07 05:16:00,36.7,32.0,29.75,NNW,331,0.0,5.0,82,0.00,,,0.00,weatherlink.com 1.10,2013-02-07 11:16:00,
2013-02-07 05:30:00,36.0,31.0,29.76,NNE,21,0.0,6.0,83,0.00,,,0.00,weatherlink.com 1.10,2013-02-07 11:30:00,
2013-02-07 05:45:00,35.5,31.0,29.77,NNE,22,1.0,6.0,84,0.00,,,0.00,weatherlink.com 1.10,2013-02-07 11:45:00,
2013-02-07 06:00:00,35.3,31.0,29.76,NNE,14,1.0,6.0,84,0.00,,,0.00,weatherlink.com 1.10,2013-02-07 12:00:00,
2013-02-07 06:16:00,35.1,31.0,29.76,NW,322,1.0,6.0,85,0.00,,,0.00,weatherlink.com 1.10,2013-02-07 12:16:00,
2013-02-07 06:30:00,34.8,31.0,29.77,North,360,0.0,6.0,86,0.00,,,0.00,weatherlink.com 1.10,2013-02-07 12:30:00,
2013-02-07 06:46:00,34.7,31.0,29.78,NNE,31,0.0,5.0,86,0.00,,,0.00,weatherlink.com 1.10,2013-02-07 12:46:00,
2013-02-07 07:01:00,34.5,31.0,29.79,North,9,4.0,6.0,87,0.00,,,0.00,weatherlink.com 1.10,2013-02-07 13:01:00,
2013-02-07 07:16:00,34.2,31.0,29.79,NW,317,4.0,7.0,87,0.00,,,0.00,weatherlink.com 1.10,2013-02-07 13:16:00,
2013-02-07 07:31:00,34.0,31.0,29.80,North,355,0.0,14.0,88,0.00,,,0.00,weatherlink.com 1.10,2013-02-07 13:31:00,
2013-02-07 07:46:00,33.7,31.0,29.81,NNE,12,0.0,9.0,89,0.00,,,0.00,weatherlink.com 1.10,2013-02-07 13:46:00,
2013-02-07 08:01:00,33.4,31.0,29.82,NW,325,0.0,8.0,89,0.00,,,0.00,weatherlink.com 1.10,2013-02-07 14:01:00,
2013-02-07 08:16:00,33.1,31.0,29.84,NE,37,4.0,6.0,90,0.00,,,0.00,weatherlink.com 1.10,2013-02-07 14:16:00,
2013-02-07 08:31:00,33.0,30.0,29.84,NW,314,1.0,8.0,90,0.00,,,0.00,weatherlink.com 1.10,2013-02-07 14:31:00,
2013-02-07 08:46:00,33.0,30.0,29.86,East,87,3.0,7.0,90,0.00,,,0.00,weatherlink.com 1.10,2013-02-07 14:46:00,
2013-02-07 09:01:00,33.0,30.0,29.86,North,5,2.0,7.0,90,0.00,,,0.00,weatherlink.com 1.10,2013-02-07 15:01:00,
2013-02-07 09:16:00,32.9,30.0,29.86,WNW,284,4.0,12.0,89,0.00,,,0.00,weatherlink.com 1.10,2013-02-07 15:16:00,
2013-02-07 09:31:00,32.8,30.0,29.87,NE,51,5.0,9.0,89,0.00,,,0.00,weatherlink.com 1.10,2013-02-07 15:31:00,
2013-02-07 09:46:00,32.6,30.0,29.88,NNE,17,2.0,14.0,89,0.00,,,0.00,weatherlink.com 1.10,2013-02-07 15:46:00,
2013-02-07 10:02:00,32.7,30.0,29.88,NNE,15,0.0,12.0,89,0.00,,,0.00,weatherlink.com 1.10,2013-02-07 16:02:00,
2013-02-07 10:16:00,33.3,30.0,29.89,NNE,13,7.0,11.0,89,0.00,,,0.00,weatherlink.com 1.10,2013-02-07 16:16:00,
2013-02-07 10:31:00,33.8,30.0,29.89,North,5,7.0,12.0,87,0.00,,,0.00,weatherlink.com 1.10,2013-02-07 16:31:00,
2013-02-07 10:46:00,33.6,30.0,29.90,NW,316,1.0,14.0,87,0.00,,,0.00,weatherlink.com 1.10,2013-02-07 16:46:00,
2013-02-07 11:01:00,33.0,30.0,29.90,NW,311,3.0,10.0,88,0.00,,,0.00,weatherlink.com 1.10,2013-02-07 17:01:00,
2013-02-07 11:16:00,32.8,30.0,29.91,SW,234,0.0,9.0,89,0.00,,,0.00,weatherlink.com 1.10,2013-02-07 17:16:00,
2013-02-07 11:32:00,32.8,30.0,29.91,NE,35,2.0,9.0,89,0.00,,,0.00,weatherlink.com 1.10,2013-02-07 17:32:00,
2013-02-07 11:47:00,32.9,30.0,29.91,North,355,4.0,11.0,88,0.00,,,0.00,weatherlink.com 1.10,2013-02-07 17:47:00,
2013-02-07 12:01:00,33.0,30.0,29.91,NNE,17,1.0,9.0,87,0.00,,,0.00,weatherlink.com 1.10,2013-02-07 18:01:00,
2013-02-07 12:16:00,33.1,29.0,29.90,NW,325,3.0,7.0,86,0.00,,,0.00,weatherlink.com 1.10,2013-02-07 18:16:00,
2013-02-07 12:31:00,32.7,29.0,29.90,NNE,32,2.0,8.0,86,0.00,,,0.00,weatherlink.com 1.10,2013-02-07 18:31:00,
2013-02-07 12:46:00,32.5,29.0,29.90,NNE,15,3.0,13.0,85,0.00,,,0.00,weatherlink.com 1.10,2013-02-07 18:46:00,
2013-02-07 13:02:00,32.5,29.0,29.91,NW,311,5.0,12.0,86,0.00,,,0.00,weatherlink.com 1.10,2013-02-07 19:02:00,
2013-02-07 13:17:00,32.5,29.0,29.91,NE,42,1.0,11.0,85,0.00,,,0.00,weatherlink.com 1.10,2013-02-07 19:17:00,
2013-02-07 13:32:00,32.5,29.0,29.91,NE,48,2.0,9.0,85,0.00,,,0.00,weatherlink.com 1.10,2013-02-07 19:32:00,
2013-02-07 13:47:00,32.3,28.0,29.91,NW,325,4.0,11.0,84,0.00,,,0.00,weatherlink.com 1.10,2013-02-07 19:47:00,
2013-02-07 14:02:00,32.3,28.0,29.91,NNW,342,7.0,9.0,84,0.00,,,0.00,weatherlink.com 1.10,2013-02-07 20:02:00,
2013-02-07 14:18:00,32.5,28.0,29.91,North,360,6.0,11.0,84,0.00,,,0.00,weatherlink.com 1.10,2013-02-07 20:18:00,
2013-02-07 14:32:00,32.6,28.0,29.92,ENE,66,2.0,11.0,83,0.00,,,0.00,weatherlink.com 1.10,2013-02-07 20:32:00,
2013-02-07 14:47:00,32.4,28.0,29.91,NNE,22,8.0,9.0,83,0.00,,,0.00,weatherlink.com 1.10,2013-02-07 20:47:00,
2013-02-07 15:02:00,32.3,28.0,29.92,NNE,22,2.0,14.0,83,0.00,,,0.00,weatherlink.com 1.10,2013-02-07 21:02:00,
2013-02-07 15:17:00,32.3,28.0,29.93,NE,39,1.0,9.0,83,0.00,,,0.00,weatherlink.com 1.10,2013-02-07 21:17:00,
2013-02-07 15:32:00,32.4,28.0,29.93,NNE,23,1.0,10.0,82,0.00,,,0.00,weatherlink.com 1.10,2013-02-07 21:32:00,
2013-02-07 15:47:00,32.3,27.0,29.94,West,281,3.0,13.0,82,0.00,,,0.00,weatherlink.com 1.10,2013-02-07 21:47:00,
2013-02-07 16:02:00,32.5,28.0,29.94,NW,304,0.0,10.0,82,0.00,,,0.00,weatherlink.com 1.10,2013-02-07 22:02:00,
2013-02-07 16:17:00,32.4,27.0,29.94,WNW,290,0.0,8.0,81,0.00,,,0.00,weatherlink.com 1.10,2013-02-07 22:17:00,
2013-02-07 16:32:00,32.2,27.0,29.95,NE,53,3.0,8.0,81,0.00,,,0.00,weatherlink.com 1.10,2013-02-07 22:32:00,
2013-02-07 16:47:00,31.8,27.0,29.96,NW,323,3.0,9.0,81,0.00,,,0.00,weatherlink.com 1.10,2013-02-07 22:47:00,
2013-02-07 17:02:00,31.5,26.0,29.96,NNE,22,1.0,7.0,81,0.00,,,0.00,weatherlink.com 1.10,2013-02-07 23:02:00,
2013-02-07 17:17:00,31.4,26.0,29.97,NNW,346,1.0,7.0,81,0.00,,,0.00,weatherlink.com 1.10,2013-02-07 23:17:00,
2013-02-07 17:32:00,31.1,26.0,29.98,NW,320,1.0,8.0,81,0.00,,,0.00,weatherlink.com 1.10,2013-02-07 23:32:00,
2013-02-07 17:48:00,30.8,26.0,29.99,NNW,335,3.0,10.0,81,0.00,,,0.00,weatherlink.com 1.10,2013-02-07 23:48:00,
2013-02-07 18:02:00,30.7,26.0,29.99,NE,34,0.0,8.0,81,0.00,,,0.00,weatherlink.com 1.10,2013-02-08 00:02:00,
2013-02-07 18:17:00,30.5,25.0,30.00,North,360,2.0,8.0,81,0.00,,,0.00,weatherlink.com 1.10,2013-02-08 00:17:00,
2013-02-07 18:32:00,30.4,25.0,30.01,North,355,0.0,6.0,81,0.00,,,0.00,weatherlink.com 1.10,2013-02-08 00:32:00,
2013-02-07 18:48:00,30.4,25.0,30.01,NNW,335,0.0,6.0,81,0.00,,,0.00,weatherlink.com 1.10,2013-02-08 00:48:00,
2013-02-07 19:02:00,30.4,25.0,30.02,North,5,0.0,8.0,81,0.00,,,0.00,weatherlink.com 1.10,2013-02-08 01:02:00,
2013-02-07 19:17:00,30.4,26.0,30.02,North,9,4.0,8.0,82,0.00,,,0.00,weatherlink.com 1.10,2013-02-08 01:17:00,
2013-02-07 19:32:00,30.3,25.0,30.03,SW,223,0.0,4.0,82,0.00,,,0.00,weatherlink.com 1.10,2013-02-08 01:32:00,
2013-02-07 19:47:00,30.3,25.0,30.03,NNE,28,0.0,7.0,82,0.00,,,0.00,weatherlink.com 1.10,2013-02-08 01:47:00,
2013-02-07 20:17:00,30.2,25.0,30.04,SE,126,2.0,6.0,82,0.00,,,0.00,weatherlink.com 1.10,2013-02-08 02:17:00,
2013-02-07 20:33:00,30.1,25.0,30.05,West,275,0.0,8.0,81,0.00,,,0.00,weatherlink.com 1.10,2013-02-08 02:33:00,
2013-02-07 20:48:00,30.1,25.0,30.05,NNE,26,2.0,7.0,81,0.00,,,0.00,weatherlink.com 1.10,2013-02-08 02:48:00,
2013-02-07 21:03:00,29.8,25.0,30.06,NNW,340,0.0,8.0,81,0.00,,,0.00,weatherlink.com 1.10,2013-02-08 03:03:00,
2013-02-07 21:18:00,29.7,25.0,30.06,NNE,25,0.0,4.0,81,0.00,,,0.00,weatherlink.com 1.10,2013-02-08 03:18:00,
2013-02-07 21:33:00,29.6,24.0,30.06,NNE,23,0.0,6.0,81,0.00,,,0.00,weatherlink.com 1.10,2013-02-08 03:33:00,
2013-02-07 21:48:00,29.5,24.0,30.07,NNW,343,1.0,4.0,81,0.00,,,0.00,weatherlink.com 1.10,2013-02-08 03:48:00,
2013-02-07 22:18:00,29.3,24.0,30.07,NNW,342,1.0,3.0,82,0.00,,,0.00,weatherlink.com 1.10,2013-02-08 04:18:00,
2013-02-07 22:33:00,29.2,24.0,30.07,NNE,19,0.0,3.0,81,0.00,,,0.00,weatherlink.com 1.10,2013-02-08 04:33:00,
2013-02-07 22:48:00,29.2,24.0,30.07,NNW,338,0.0,4.0,80,0.00,,,0.00,weatherlink.com 1.10,2013-02-08 04:48:00,
2013-02-07 23:03:00,29.2,24.0,30.08,North,350,0.0,4.0,80,0.00,,,0.00,weatherlink.com 1.10,2013-02-08 05:03:00,
2013-02-07 23:18:00,29.2,24.0,30.08,NNE,28,0.0,0.0,80,0.00,,,0.00,weatherlink.com 1.10,2013-02-08 05:18:00,
2013-02-07 23:33:00,29.2,24.0,30.08,North,11,2.0,3.0,80,0.00,,,0.00,weatherlink.com 1.10,2013-02-08 05:33:00,
2013-02-07 23:48:00,28.9,23.0,30.08,North,360,0.0,1.0,80,0.00,,,0.00,weatherlink.com 1.10,2013-02-08 05:48:00,